DIDO-2 (42000 NORAD) Tracking and Keplerian Element Data

This shows tracking and keplerian element data for the satellite.

Feedback or suggestion? Click here.




ElementValue
Catalog42000
NameDIDO-2
Epoch Orbit40736
Epoch Day160.11573766
Epoch Year2024
RAAN221.5953
Inclination97.1291
Eccentricity0.0006252
Argument of Perigee184.7529
Mean Anonmoly175.3685
Mean Motion15.86637989
Decay Rate0.00291566
L11 42000U 17008BE 24160.11573766 .00291566 00000+0 11196-2 0 9999
L22 42000 97.1291 221.5953 0006252 184.7529 175.3685 15.86637989407362



Live tracking and technical data element details for DIDO-2 (NORAD 42000). DIDO-2 can be tracked NOW for your location showing map with azimuth and elevation plus other details from your city location.







IsCatalogInMostPopularTable: catalog: 42000, numindb: 281
Update: records affected: 1



GetName: 42000 DIDO-2

Hit Count: updated at: Fri, 16 May 2025 10:32:10 GMT